Cahul International Airport

Jump to: basic info | weather | comments

Related pages: nearby airports | nearby navaids | notams | map

Basic information (top)

Codes: LUCH
Location: lon 45.843800, lat 28.263700, elev 652 ft / 199 m msl
Status: medium_airport
Scheduled airline service: no
Links: Wikipedia Mobile

Weather (top)

Current conditions (rec'd 2014/08/29 11:00Z):

LUCH 291100Z 33006KT 9999 BKN049 23/07 Q1021

Airport forecast for Tulcea Airport 51nm (94km) SSE (rec'd 2014/07/19 18:48Z):

TAF LRTC 191800Z 1918/2024 CNL

Latest comments (top)

No comments yet for Cahul International Airport

More... (top)

See also NOTAMs and nearby airports and navaids, or visit the Cahul International Airport page at the main OurAirports website..